CZ-2D DEB

Satellite information

Favourite Embed

Satellite Type and Status

DEBRISIN ORBIT

Key statistics

Satellite CZ-2D DEB at a glance.

Uptime

2220

Days in orbit

Revolutions

≈ 14.4

Per day

Orbit

SSO

Sun Synchronous Orbit

Inclination

98.5

Latest

Satellite identification and parameters

Extended collection of information and parameters for CZ-2D DEB.

Object identification

Identified? True

Debris? True

Object name: CZ-2D DEB

International designator: 2019-063E

Object number (NORAD): 47975

Object ID (CCSDS): 47975

Country: PEOPLES REPUBLIC OF CHINA (PRC)

Current information (Y/N): Y

RCS size: SMALL

Orbital parameters

Period: 100.237 minutes

Inclination: 98.4967 deg

SMA: 7147.93 km

Apoapsis: 775.798 km

Periapsis: 763.791 km

RAAN: 353.0224 deg

Eccentricy: 0.00083986

Argument of periapsis: 131.6187 deg

Mean anomaly: 228.572 deg

Mean motion: 14.36588394 rev/day

Mean motion (dot): 0.00000849 rev/day2

B* drag term: 0.00030360823 1/REarth

Two-line elements (TLE)

Creation date: Oct. 23, 2025, 2:46 a.m.

Reference frame: TEME

Reference center: EARTH

Epoch: Oct. 22, 2025, 2:46 p.m. UTC

TLE line 0: 0 CZ-2D DEB

TLE line 1: 1 47975U 19063E 25295.61575187 .00000849 00000-0 30361-3 0 9991

TLE line 2: 2 47975 98.4967 353.0224 0008399 131.6187 228.5720 14.36588394252277

Live tracking on map

Real-time ground track for satellite CZ-2D DEB.

In-orbit conjunctions

A list of the most updated potential collisions computed for object CZ-2D DEB.

Target Orbit TCA Probability of collision Miss distance Type
METEOR 2-8 DEB LEO 2025-06-26 23:43:00 0.0001328463 335.0 (m) DEBRIS

Associated space launch

The Yunhai-1 satellite is designed for detecting environmental elements in the atmosphere and ocean, the space environment, disaster prevention and reduction, and scientific experimentation. It is made by the Shanghai Institute of Spaceflight Technology.

CZ-2D DEB was lifted into orbit during the mission ‘Long March 2D | Yunhai-1-02’, on board a Long March 2D space rocket.

The launch took place on Sept. 25, 2019, 12:54 a.m. from Launch Area 4 (SLS-2 / 603).

For more information about the launch, click the button.

Launch to space Long March 2D | Yunhai-1-02
Long March 2D | Yunhai-1-02

Agency: N/A

Status: Launch Successful

Launch date: Sept. 25, 2019, 12:54 a.m. UTC

Rocket: Long March 2D

Launch pad: Launch Area 4 (SLS-2 / 603)

Location: Jiuquan Satellite Launch Center, People's Republic of China

...

Latest news about this satellite

News about space launch
Breakup of China’s Yunhai-1 (02) satellite linked to space debris collision

U.S. space tracking has linked the breakup of Chinese satellite Yunhai-1 (02) to a collision with a small piece of debris from a Russian satellite launch, according to NASA.


Newsletter sign-up

Weekly statistics, charts and insights to help you stay on top of the space industry.